Regional Weather Roundup
Issued by NWS

Home | Current Version | Previous Version | Text Only | Print | Product List | Glossary Off
Versions: 1 2 3 4 5 6 7 8 9 10 11 12 13 14 15 16 17 18 19 20 21 22 23 24 25 26 27 28 29 30 31 32 33 34 35 36 37 38 39 40 41 42 43 44 45 46 47 48 49 50

125
ASUS44 KLIX 240101
RWRLA
LOUISIANA WEATHER ROUNDUP
NATIONAL WEATHER SERVICE NEW ORLEANS LA
800 PM CDT WED APR 23 2014

NOTE: "FAIR" INDICATES FEW OR NO CLOUDS BELOW 12,000 FEET WITH NO
      SIGNIFICANT WEATHER AND/OR OBSTRUCTIONS TO VISIBILITY.
      SKY/WX - SKY CONDITION AND SIGNIFICANT WEATHER.
      TMP - AIR TEMPERATURE.    DP   - DEWPOINT TEMPERATURE.
      RH  - RELATIVE HUMIDITY.  PRES - PRESSURE.
      HX  - HEAT INDEX.         WCI  - WIND CHILL INDEX.

*  THESE STATIONS ARE NOT NWS OR FAA STATIONS AND ARE NOT UNDER
   NWS QUALITY CONTROL.

LAZ040-048-061>063-065-066-069-240200-
SOUTHEAST LOUISIANA

CITY           SKY/WX    TMP DP  RH WIND       PRES   REMARKS
N.O. AUDUBON     N/A     76  64  65 MISG        N/A
N.O. INTL ARPT PTCLDY    74  64  71 S12       29.90R
N.O. LAKEFRONT CLEAR     75  64  68 S14       29.91R
N.O. DOWNTOWN* FAIR      77  61  57 S8        29.92R
SLIDELL        CLEAR     69  60  73 CALM      29.89R
BATON ROUGE    CLEAR     73  58  59 CALM      29.88R
BOOTHVILLE     PTCLDY    73  65  75 S6        29.92R
BELLE CHASSE   PTCLDY    72  63  73 S5        29.91R
BOGALUSA*        N/A     75  59  57 SW5       29.90R
GALLIANO*      CLEAR     72  64  74 S3        29.92R
NEW ROADS*     NOT AVBL
GONZALES*      FAIR      72  62  70 CALM      29.88R
HAMMOND*       NOT AVBL
HOUMA*           N/A     73  61  67 S3        29.91R
PORT FOURCHON* CLEAR     73  64  73 SW6       29.94R

$$

LAZ041-044-053-054-240200-
SOUTHWEST LOUISIANA

CITY           SKY/WX    TMP DP  RH WIND       PRES   REMARKS
LAKE CHARLES   CLEAR     71  64  78 S5        29.87F
LAFAYETTE      CLEAR     74  62  66 S9        29.89R
PATTERSON      CLEAR     70  64  83 SW5       29.94R
SALT POINT       N/A     73  67  81 CALM      29.90S
NEW IBERIA     CLEAR     73  64  73 S9        29.90R
CHENAULT AIRPK CLEAR     73  63  68 S7        29.89S

$$

LAZ027-028-240200-
CENTRAL LOUISIANA

CITY           SKY/WX    TMP DP  RH WIND       PRES   REMARKS
FORT POLK      CLEAR     73  58  59 SE5       29.86R
ALEXANDRIA INT CLEAR     73  58  59 CALM      29.85S
ALEXANDRIA     CLEAR     70  58  65 CALM      29.87S

$$

LAZ001-002-240200-
NORTHWEST LOUISIANA

CITY           SKY/WX    TMP DP  RH WIND       PRES   REMARKS
SHREVEPORT     PTCLDY    75  58  55 SE6       29.83F
BARKSDALE AFB  NOT AVBL
DTN SHREVEPORT CLEAR     75  55  49 SE7       29.83F

$$

LAZ014-016-240200-
NORTHEAST LOUISIANA

CITY           SKY/WX    TMP DP  RH WIND       PRES   REMARKS
MONROE         CLEAR     69  52  54 CALM      29.90R
TALLULAH       CLEAR     70  52  52 CALM      29.90R

$$




USA.gov is the U.S. government's official web portal to all federal, state and local government web resources and services.